Regional Weather Roundup
Issued by NWS Little Rock, AR

Home | Current Version | Previous Version | Text Only | Print | Product List | Glossary On
Versions: 1 2 3 4 5 6 7 8 9 10 11 12 13 14 15 16 17 18 19 20 21 22 23 24 25 26 27 28
000
ASUS44 KLZK 181705
RWRLZK

WEATHER ROUNDUP FOR ARKANSAS
NATIONAL WEATHER SERVICE LITTLE ROCK AR
1200 PM CDT FRI APR 18 2014

NOTE: "FAIR" INDICATES FEW OR NO CLOUDS BELOW 12,000 FEET WITH NO
SIGNIFICANT WEATHER AND/OR OBSTRUCTIONS TO VISIBILITY.

ARZ001-003-010-029-181800-
NORTHWEST ARKANSAS

CITY           SKY/WX    TMP DP  RH WIND       PRES   REMARKS
FAYETTEVILLE   SUNNY     66  40  38 CALM      30.27F
FORT SMITH     SUNNY     70  45  40 VRB5      30.26F
HARRISON       SUNNY     66  41  40 VRB6      30.28S
BENTONVILLE    SUNNY     64  41  42 NE5       30.28F
ROGERS         SUNNY     65  40  39 NW3       30.27F
SILOAM SPGS    SUNNY     66  43  42 N7        30.28F
HIGHFILL       SUNNY     66  42  41 VRB7      30.27F
SPRINGDALE     SUNNY     64  45  48 CALM      30.29F
$$

ARZ004-005-016-181800-
NORTH CENTRAL ARKANSAS

CITY           SKY/WX    TMP DP  RH WIND       PRES   REMARKS
BATESVILLE     SUNNY     70  45  40 E8        30.26S
FLIPPIN        SUNNY     66  41  39 N3        30.27F
MTN HOME       MOSUNNY   69  40  34 CALM      30.26F
$$

ARZ040-041-181800-
WEST CENTRAL ARKANSAS

CITY           SKY/WX    TMP DP  RH WIND       PRES   REMARKS
MENA           SUNNY     70  37  30 CALM      30.24F
MOUNT IDA      SUNNY     69  41  36 CALM      30.22F
$$

ARZ009-017-025-026-028-181800-
NORTHEAST ARKANSAS

CITY           SKY/WX    TMP DP  RH WIND       PRES   REMARKS
CORNING          N/A     72  45  37 E6        30.28S
JONESBORO      MOSUNNY   69  47  45 NE13      30.27S
NEWPORT        SUNNY     68  48  48 NE9       30.28F
WALNUT RIDGE   SUNNY     68  48  49 NE8       30.28S
BLYTHEVILLE    MOSUNNY   70  48  45 E6        30.27S
$$

ARZ022-023-033-042-044-181800-
CENTRAL ARKANSAS

CITY           SKY/WX    TMP DP  RH WIND       PRES   REMARKS
LITTLE ROCK    PTSUNNY   68  46  45 NE7       30.25F
N LITTLE ROCK  PTSUNNY   69  49  48 NE9       30.25F
JACKSONVILLE   MOSUNNY   68  45  43 NE7       30.25F
SEARCY         MOSUNNY   69  45  42 VRB7      30.27F
HOT SPRINGS    CLOUDY    69  48  47 VRB6      30.24F
RUSSELLVILLE   SUNNY     70  45  40 VRB3      30.24F
CLINTON        FAIR      70  46  43 N3        30.25F
$$

ARZ036-181800-
EAST ARKANSAS

CITY           SKY/WX    TMP DP  RH WIND       PRES   REMARKS
WEST MEMPHIS   SUNNY     71  48  43 NE8       30.24S
$$

ARZ050-053-066-070-073-181800-
SOUTHWEST ARKANSAS

CITY           SKY/WX    TMP DP  RH WIND       PRES   REMARKS
ARKADELPHIA    FAIR      68  52  56 NE7       30.24F
CAMDEN         MOSUNNY   68  54  60 MISG      30.22F
TEXARKANA      SUNNY     67  51  56 E9        30.23F
EL DORADO      CLOUDY    69  53  56 N5        30.22S
DE QUEEN       SUNNY     70  44  39 CALM      30.22F
$$

ARZ056-057-069-181800-
SOUTHEAST ARKANSAS

CITY           SKY/WX    TMP DP  RH WIND       PRES   REMARKS
PINE BLUFF     MOSUNNY   70  50  49 N9        30.23F
STUTTGART      PTSUNNY   70  48  46 N14       30.24F
MONTICELLO     MOSUNNY   70  52  52 NE9G20    30.21F

$$





USA.gov is the U.S. government's official web portal to all federal, state and local government web resources and services.